Weather History for KLAA - September, 2012

Change the Weather History Date:

Sunday, September 9, 2012

  Actual Average Record
Temperature  
Mean Temperature 66 °F 69 °F  
Max Temperature 89 °F 85 °F 101 °F (1931)
Min Temperature 42 °F 54 °F 34 °F (1941)
Degree Days  
Heating Degree Days 0 1  
Month to date heating degree days 2 8  
Since 1 July heating degree days 2 13  
Cooling Degree Days 1 5  
Month to date cooling degree days 74 57  
Year to date cooling degree days 1590 1046  
Growing Degree Days 16 (Base 50)    
Moisture  
Dew Point 33 °F    
Average Humidity 35    
Maximum Humidity 58    
Minimum Humidity 12    
Precipitation  
Precipitation 0.00 in 0.05 in 1.24 in (2002)
Month to date precipitation T 0.45  
Year to date precipitation 4.38 12.82  
Snow  
Snow 0.00 in - - ()
Month to date snowfall 0.0  
Snow Depth 0.00 in    
Sea Level Pressure  
Sea Level Pressure 30.08 in    
Wind  
Wind Speed 9 mph (South)    
Max Wind Speed 18 mph    
Max Gust Speed 31 mph    
Visibility 10 miles    
Events      
T = Trace of Precipitation, MM = Missing Value Source: NWS Daily Summary

Daily Weather History Graph

Daily Weather History Graph

Search for Another Location

Airport or City:

Trip Planner

Search our weather history database for the weather conditions in past years. The results will help you decide how hot, cold, wet, or windy it might be!

Date:

Astronomy

Sep. 09, 2012 Rise Set
Actual Time 6:27 AM MDT 7:07 PM MDT
Civil Twilight 6:01 AM MDT 7:33 PM MDT
Nautical Twilight 5:29 AM MDT 8:05 PM MDT
Astronomical Twilight 4:57 AM MDT 8:37 PM MDT
Moon 12:03 AM MDT (9/9) 2:50 PM MDT (9/9)
Length of Visible Light 13h 32m
Length of Day
12h 39m
Last Quarter, 39% of the Moon is Illuminated
Sep 9
Last Quarter
Sep 15
New
Sep 22
First Quarter
Sep 29
Full
Oct 8
Last Quarter

Hourly Weather History & Observations

Time (MDT) Temp. Windchill Dew Point Humidity Pressure Visibility Wind Dir Wind Speed Gust Speed Precip Events Conditions
12:53 AM 52.0 °F - 32.0 °F 47% 30.12 in 10.0 mi Calm Calm - N/A   Clear
1:53 AM 53.1 °F - 34.0 °F 48% 30.11 in 10.0 mi SW 3.5 mph - N/A   Clear
2:53 AM 48.9 °F - 33.1 °F 54% 30.12 in 10.0 mi WSW 3.5 mph - N/A   Clear
3:53 AM 50.0 °F - 34.0 °F 54% 30.12 in 10.0 mi SSW 6.9 mph - N/A   Clear
4:53 AM 46.0 °F 43.9 °F 30.0 °F 54% 30.14 in 10.0 mi SW 4.6 mph - N/A   Clear
5:53 AM 45.0 °F 42.6 °F 30.9 °F 58% 30.16 in 10.0 mi SSW 4.6 mph - N/A   Clear
6:53 AM 44.1 °F 40.1 °F 30.9 °F 60% 30.18 in 10.0 mi SSW 6.9 mph - N/A   Clear
7:53 AM 55.9 °F - 34.0 °F 44% 30.19 in 10.0 mi SW 3.5 mph - N/A   Clear
8:53 AM 63.0 °F - 37.0 °F 38% 30.19 in 10.0 mi West 4.6 mph - N/A   Clear
10:53 AM 75.0 °F - 37.0 °F 25% 30.15 in 10.0 mi Calm Calm - N/A   Clear
11:53 AM 81.0 °F - 36.0 °F 20% 30.14 in 10.0 mi Variable 3.5 mph - N/A   Clear
12:53 PM 84.0 °F - 33.1 °F 16% 30.11 in 10.0 mi Variable 4.6 mph - N/A   Clear
1:53 PM 86.0 °F - 32.0 °F 14% 30.06 in 10.0 mi SE 10.4 mph 18.4 mph N/A   Clear
2:53 PM 87.1 °F - 33.1 °F 15% 30.04 in 10.0 mi SSE 13.8 mph 19.6 mph N/A   Clear
3:53 PM 88.0 °F - 28.9 °F 12% 30.01 in 10.0 mi South 13.8 mph 24.2 mph N/A   Clear
4:53 PM 87.1 °F - 30.0 °F 13% 30.00 in 10.0 mi SE 15.0 mph 31.1 mph N/A   Clear
5:53 PM 84.9 °F - 30.0 °F 14% 30.01 in 10.0 mi SSE 13.8 mph - N/A   Clear
6:53 PM 81.0 °F - 30.0 °F 16% 30.01 in 10.0 mi SE 10.4 mph - N/A   Clear
7:53 PM 73.9 °F - 30.0 °F 20% 30.00 in 10.0 mi SE 11.5 mph - N/A   Clear
8:53 PM 72.0 °F - 32.0 °F 23% 30.00 in 10.0 mi SSE 13.8 mph - N/A   Clear
9:53 PM 70.0 °F - 32.0 °F 25% 29.98 in 10.0 mi SSE 15.0 mph - N/A   Clear
10:53 PM 70.0 °F - 34.0 °F 27% 29.97 in 10.0 mi South 16.1 mph - N/A   Clear
11:53 PM 66.9 °F - 35.1 °F 31% 29.96 in 10.0 mi South 16.1 mph - N/A   Clear